Theta_e
348 348 348 348 348 347 347 348 348 349 349 349 348 348 350 351 350 350 351 351 352 353 353 353 353 353 354 354 354 354 355 355 356 356 355 354 354 355 354 353 352 351 351 350 349 347 345 344 343 343 343 341 341 340 340 339 337 337 336 333 332 330 328 326 324 326 327 328 331 332 333 333 332 334 334 335 335 338 342 338 337 337 336 332 330
347 348 348 348 347 347 347 348 349 349 348 348 348 348 348 350 352 351 350 352 353 353 353 354 354 353 353 353 354 354 355 355 356 356 355 354 354 355 354 353 352 352 351 350 350 350 347 345 344 344 343 342 342 341 341 340 338 336 336 336 334 333 331 329 326 326 326 326 329 331 333 334 333 332 334 334 334 336 337 339 338 337 336 335 332
348 348 348 347 347 347 348 348 348 348 348 348 348 349 349 349 352 352 351 351 353 354 354 354 354 353 353 353 353 354 355 355 355 355 355 354 354 354 354 354 353 352 351 351 351 351 349 347 346 346 345 343 343 343 342 340 339 337 337 336 335 334 333 331 328 327 327 328 328 329 330 333 334 334 334 335 337 336 335 337 338 339 338 336 335
349 349 348 347 347 347 347 348 348 348 348 348 348 349 350 350 352 352 352 352 351 354 355 354 354 354 353 353 353 354 354 355 355 355 355 355 354 354 354 353 354 353 353 352 352 351 350 349 349 348 346 344 344 343 343 342 340 339 337 336 336 336 334 333 332 330 329 328 327 329 330 331 332 334 335 335 335 335 335 336 338 338 338 338 336
348 349 349 348 347 347 347 347 347 347 348 348 348 349 350 351 351 352 353 352 352 352 354 355 354 354 354 353 353 353 354 355 355 355 356 356 355 354 354 354 354 354 354 353 355 352 351 350 351 350 347 345 345 344 344 342 342 341 339 338 336 336 336 335 334 332 331 330 331 329 331 331 332 333 334 334 333 334 334 335 335 337 338 338 338
349 349 349 348 348 347 347 347 347 348 348 348 349 349 350 351 351 352 353 353 353 352 352 354 354 354 354 354 354 353 354 354 355 355 355 356 355 355 355 354 354 354 354 354 354 353 352 352 352 351 349 347 346 346 345 344 343 342 341 340 339 337 335 334 334 333 332 332 332 332 327 331 330 331 333 334 333 332 332 334 334 336 336 336 337
349 349 349 349 349 348 348 348 348 348 349 349 349 349 350 350 351 351 353 354 354 353 352 352 354 354 354 355 354 354 354 354 355 355 355 355 355 355 355 354 354 354 355 355 355 354 354 353 353 352 351 350 349 348 346 344 344 343 343 342 341 337 336 335 334 333 332 332 332 332 332 331 331 331 331 334 334 333 332 331 331 334 335 335 335
349 349 349 349 349 349 349 349 349 349 350 350 350 350 350 350 350 351 352 352 354 354 353 352 352 353 353 353 354 354 354 354 354 355 355 355 355 355 355 354 354 354 354 355 355 355 355 355 354 354 353 352 351 350 348 346 344 343 344 342 341 338 337 336 334 333 333 332 332 333 332 331 328 330 330 329 329 330 332 331 330 331 332 334 335
350 350 349 349 349 350 350 351 351 350 351 350 350 350 350 350 350 350 350 350 352 354 355 355 353 352 353 353 353 354 353 353 355 355 354 355 355 355 355 354 354 353 354 354 355 355 356 356 356 355 355 351 344 343 344 343 347 344 344 343 341 339 338 336 335 334 334 333 333 333 332 330 331 330 330 329 330 332 329 331 332 333 332 331 334
350 350 349 349 350 350 351 351 351 351 350 350 350 350 350 350 350 349 349 350 350 351 352 355 355 354 353 353 353 354 354 354 348 339 342 355 355 356 355 355 355 354 353 353 354 355 356 356 357 353 342 339 338 336 335 334 335 344 347 344 343 341 339 337 336 335 334 333 333 333 332 331 332 332 332 332 333 333 331 330 329 331 327 330 332
350 350 350 351 351 351 351 351 351 350 351 351 351 351 351 351 350 350 349 349 349 349 350 350 352 354 354 353 352 353 354 354 339 333 333 337 352 355 355 355 355 355 354 354 353 354 354 355 356 356 348 341 342 334 333 332 332 331 334 338 339 344 341 338 338 337 335 335 335 334 333 333 334 334 333 334 333 332 332 331 330 330 328 327 327
351 350 351 351 351 351 351 351 351 351 351 350 351 351 351 351 350 350 349 349 349 349 348 348 348 350 352 354 354 353 353 342 334 331 331 331 337 355 356 355 355 355 355 355 355 354 354 354 355 356 356 356 355 352 341 333 330 330 330 330 331 332 335 342 341 338 337 336 335 335 334 334 335 335 334 334 334 333 333 332 331 330 329 328 328
351 351 351 351 351 352 351 351 351 351 351 351 351 351 350 350 350 349 349 350 349 348 348 348 347 348 348 349 351 353 353 339 332 330 330 329 329 338 354 355 355 355 355 355 355 355 354 354 354 354 355 345 351 354 354 352 334 328 327 328 328 328 328 328 331 343 343 338 337 337 337 337 336 336 337 336 336 333 332 331 332 331 331 330 330
352 352 352 352 352 352 352 351 351 351 352 352 351 351 350 350 350 350 350 350 349 349 348 348 348 347 347 347 348 350 351 340 330 327 327 327 327 331 349 353 354 355 355 355 355 355 355 354 353 353 354 354 354 353 353 353 353 350 343 339 340 339 329 325 324 325 331 341 341 339 341 340 338 339 341 339 336 334 333 332 333 332 331 331 333
352 352 352 353 353 353 352 352 351 351 352 352 351 351 350 350 350 350 350 349 348 348 348 347 348 348 348 348 347 348 350 335 328 325 324 323 325 327 346 351 353 354 355 355 355 355 355 356 355 354 354 354 354 353 353 352 352 352 351 350 347 345 345 344 340 337 337 338 339 341 343 344 343 343 343 342 339 339 338 337 336 336 335 335 334
352 353 353 353 353 354 353 352 352 352 352 351 351 350 350 350 350 350 350 350 349 349 348 349 348 348 348 348 347 347 349 332 326 324 322 322 324 336 344 348 351 353 354 355 355 356 356 356 355 355 355 355 347 335 341 353 352 351 350 351 351 351 350 340 336 338 343 344 343 343 344 345 338 344 344 344 342 341 341 340 338 336 333 332 331
352 353 354 354 355 355 354 353 353 352 352 351 351 351 350 350 350 351 349 349 348 348 347 348 348 348 348 348 347 347 348 337 325 321 321 320 323 339 344 347 350 351 353 354 355 356 356 356 356 356 355 355 344 333 330 334 350 351 350 350 350 351 351 351 335 328 329 328 328 329 330 330 330 328 327 327 335 339 340 337 335 335 332 330 331
353 354 355 356 357 356 356 355 354 353 353 352 351 351 352 352 351 351 349 348 348 348 348 348 348 348 347 347 348 347 347 339 325 320 319 319 327 341 344 346 348 350 351 353 355 355 356 352 357 356 356 356 339 330 329 334 346 349 350 350 349 349 350 352 352 343 326 324 325 326 327 328 328 328 327 326 325 327 338 336 338 338 333 332 331
353 354 356 357 358 358 358 357 356 355 354 353 353 352 352 352 352 352 351 350 349 349 349 347 347 347 348 348 343 346 347 341 325 320 318 317 326 342 346 347 347 348 350 351 353 354 355 354 350 347 350 348 334 329 327 332 347 349 350 350 349 348 350 352 351 351 348 341 337 336 336 331 335 336 337 327 326 329 334 337 340 338 335 334 333
354 355 356 358 358 359 359 358 357 356 355 355 354 354 354 353 352 351 351 351 350 349 349 348 347 347 348 348 349 348 348 348 342 320 317 315 319 341 346 347 347 348 349 350 350 352 353 354 350 332 327 328 327 325 323 321 343 351 351 350 349 349 353 353 352 353 352 351 350 345 342 343 343 342 342 341 341 340 336 336 337 338 337 336 335
355 355 356 357 358 358 359 359 358 357 357 356 356 355 354 353 352 351 351 351 350 349 349 348 348 347 347 349 349 350 350 349 347 323 316 314 316 326 346 347 349 349 349 349 350 350 351 352 354 340 328 323 320 318 316 315 319 341 349 351 352 351 343 350 352 347 350 350 350 350 349 347 345 344 344 343 342 342 341 338 338 339 338 337 336
354 353 354 355 357 358 358 359 359 359 358 357 355 354 355 354 353 352 351 351 349 349 348 348 347 347 348 348 349 350 352 346 352 328 318 314 314 316 340 348 349 350 350 350 350 351 351 353 353 343 328 321 318 314 312 313 315 327 337 326 325 322 331 337 339 341 344 346 347 348 348 346 345 345 345 344 345 344 344 343 341 339 340 340 339
351 352 352 354 356 357 357 357 358 359 359 358 356 355 355 354 353 352 351 350 349 348 348 348 347 346 346 347 348 349 350 350 336 343 319 314 313 313 321 336 333 349 351 351 351 352 354 353 355 333 320 311 309 309 311 310 312 322 315 315 317 319 322 331 336 338 340 342 343 343 344 344 342 342 343 344 345 346 346 346 346 344 341 340 341
349 350 351 353 355 357 357 358 358 359 358 358 357 355 354 354 354 353 352 350 349 348 348 348 347 346 345 345 346 348 349 350 340 333 332 315 313 312 313 318 326 344 352 353 353 353 353 346 324 308 310 308 309 310 311 311 323 316 312 312 313 315 325 330 331 335 336 336 337 339 340 342 342 342 342 343 344 345 346 346 346 346 346 344 342
348 349 349 350 353 356 357 358 358 358 358 358 356 355 355 355 353 353 352 351 350 349 349 348 347 347 346 345 346 348 351 350 351 341 331 323 315 313 313 314 317 320 342 345 340 334 320 312 311 311 312 312 311 311 313 314 311 309 308 310 317 325 328 330 332 334 334 335 335 336 337 338 340 342 344 344 344 344 343 344 344 345 345 345 345
346 347 348 349 351 355 356 357 358 358 358 358 358 357 356 355 354 354 353 352 351 350 350 349 348 347 347 347 347 349 351 350 342 334 334 329 321 314 313 313 316 317 323 331 322 316 315 315 317 319 321 323 330 333 333 330 319 316 315 318 327 329 330 331 332 333 333 334 334 334 335 337 338 339 340 340 339 339 339 339 340 340 341 341 340
348 346 346 347 349 353 355 356 357 358 358 358 358 358 357 357 355 353 354 354 352 352 351 350 349 348 348 348 348 348 342 338 336 331 329 330 329 324 317 318 316 318 323 329 327 328 327 327 323 318 318 316 320 319 322 324 326 327 329 330 330 329 327 327 328 329 329 329 329 330 331 333 334 333 333 334 334 336 337 335 335 335 336 337 336
347 347 347 347 349 351 353 362 359 357 357 356 356 356 358 358 356 355 355 355 353 353 353 352 350 350 350 350 349 340 332 331 332 334 331 332 328 324 326 327 324 326 327 327 325 325 325 324 322 327 327 326 326 326 327 327 327 324 323 322 321 323 326 324 324 325 325 326 328 329 329 330 329 330 331 331 331 332 333 333 333 333 334 335 333
350 346 345 347 349 352 353 357 356 350 326 316 310 310 314 320 330 343 335 335 354 357 356 354 354 354 354 352 346 338 332 330 333 326 333 324 329 330 329 329 328 327 323 315 324 325 325 325 325 324 324 324 325 324 324 323 322 320 320 320 321 321 321 319 320 322 323 323 324 326 327 328 328 329 329 329 329 330 331 331 331 330 331 332 330
348 345 345 347 349 352 353 353 348 339 332 323 318 314 308 302 305 318 326 319 311 312 323 354 357 357 355 342 337 344 339 337 308 303 303 305 307 309 311 310 311 314 309 311 322 324 324 323 323 323 322 322 322 321 321 320 320 321 322 320 322 322 323 323 322 323 324 324 326 326 326 327 327 328 328 328 329 330 330 326 329 330 328 328 328
347 345 347 347 348 352 353 347 340 334 331 330 330 327 325 319 301 299 305 307 301 302 313 320 329 336 347 335 316 308 306 301 300 299 299 299 299 298 298 299 300 301 305 322 325 324 324 323 321 320 319 318 319 320 321 320 321 321 323 324 324 324 323 323 323 323 325 327 326 327 327 327 326 327 326 326 326 327 328 328 329 329 328 328 327
344 342 345 346 349 349 347 341 336 333 331 332 332 331 329 326 324 306 299 301 301 297 297 304 313 317 317 317 315 313 305 300 299 299 298 298 297 296 296 296 297 299 304 313 324 322 322 322 322 322 321 321 322 323 323 324 324 324 325 325 325 325 325 325 325 327 327 327 327 326 326 326 326 326 325 325 323 325 325 326 326 327 327 328 328
341 341 343 348 347 347 341 338 335 334 333 332 332 333 332 330 326 322 317 304 301 300 299 299 299 301 302 302 304 304 302 299 298 298 298 297 296 296 296 296 297 304 312 322 324 320 319 321 322 322 322 323 324 325 325 326 326 326 326 326 326 326 327 328 327 328 326 327 326 326 326 326 325 324 323 324 324 324 324 324 325 326 326 326 326
338 342 344 344 343 341 339 337 335 334 335 335 335 334 333 331 327 325 325 326 325 315 307 302 300 301 301 303 302 300 298 298 298 298 298 298 297 298 299 301 297 300 312 325 324 322 321 322 322 323 324 326 326 327 326 326 327 327 327 327 327 327 328 328 328 327 326 326 326 325 325 325 324 324 324 324 324 323 322 322 322 322 324 326 326
338 350 353 348 340 340 338 337 335 334 333 333 332 332 330 330 329 328 327 326 325 325 325 323 309 305 309 303 298 298 298 297 298 298 297 297 298 298 306 326 326 324 321 321 321 320 320 319 319 322 324 326 326 327 326 326 326 327 327 327 327 327 326 326 326 326 325 325 325 325 324 323 324 323 322 322 322 321 321 321 321 322 323 325 327
338 338 339 341 339 338 337 335 334 333 332 330 331 331 332 331 328 327 325 327 326 325 325 324 319 308 301 298 297 297 297 297 297 297 297 298 300 311 326 324 324 322 321 319 320 321 321 320 318 317 319 322 324 326 326 326 327 327 327 327 326 326 326 325 324 324 324 324 324 323 321 323 323 322 322 321 321 320 321 321 320 319 319 319 320
337 337 337 336 336 335 333 332 331 331 330 330 331 331 331 331 330 329 329 328 327 326 325 324 325 325 320 316 305 297 295 296 296 296 296 294 294 315 326 324 323 321 320 319 318 318 318 320 319 316 316 319 323 326 326 326 326 326 323 326 325 325 325 325 324 323 323 323 323 323 322 322 322 321 320 319 319 319 320 320 319 318 317 317 316
333 335 335 335 334 332 331 330 330 329 332 333 333 332 332 331 331 331 330 329 329 328 328 329 329 328 326 324 326 316 305 301 303 303 303 303 311 320 321 321 320 320 318 316 316 317 318 317 316 317 318 320 323 325 326 326 326 326 325 325 325 324 319 322 323 323 323 322 321 321 320 320 320 319 318 319 318 318 318 318 318 319 318 317 317
330 326 326 328 330 333 332 333 333 334 334 333 333 332 330 330 329 329 329 329 328 327 326 324 322 322 322 323 320 320 323 325 324 322 320 320 319 318 320 319 317 315 314 313 317 318 317 318 318 318 321 324 325 325 325 325 325 325 324 324 323 323 322 322 321 321 321 320 319 319 319 319 319 318 318 318 318 318 318 318 317 318 318 317 317
329 328 327 327 330 331 333 334 334 334 334 333 332 332 331 331 329 328 327 325 323 320 318 316 315 314 314 316 318 323 325 323 322 322 321 320 319 316 317 317 315 317 317 318 316 317 318 318 318 320 321 321 322 323 324 324 324 324 323 322 321 320 320 320 319 318 318 318 318 317 317 318 318 318 317 318 318 317 316 316 316 317 317 318 318
327 328 329 324 325 327 329 327 327 327 328 329 330 330 329 329 328 327 324 322 321 319 317 315 313 312 310 308 307 312 322 321 320 321 320 320 320 320 318 317 318 318 316 317 317 319 319 321 322 322 319 317 317 320 322 323 322 322 321 321 320 319 318 318 317 317 317 317 317 316 316 316 316 316 316 317 315 315 316 316 316 315 315 316 316
324 322 322 322 322 323 322 322 322 325 326 326 325 325 325 324 322 322 321 320 319 317 315 313 312 311 306 303 302 305 317 319 319 319 319 319 319 319 319 319 317 317 317 318 318 318 318 320 322 318 317 316 317 318 320 320 320 320 319 319 318 317 316 317 317 316 316 316 316 316 315 315 315 315 315 314 316 316 316 315 315 314 314 314 314
323 321 321 322 320 319 319 319 319 318 318 318 317 320 319 317 315 315 315 315 314 313 312 311 311 311 309 304 306 307 311 312 315 313 314 314 314 315 317 318 319 319 319 320 319 317 316 317 318 316 315 315 315 316 317 317 317 317 317 317 316 316 316 316 316 316 316 316 316 316 315 314 314 313 313 314 313 314 314 313 313 313 313 312 312
319 319 318 318 317 317 317 317 316 317 316 317 316 314 313 311 310 310 310 309 309 309 308 308 309 308 308 306 305 306 308 308 309 309 310 311 310 311 312 316 319 319 318 318 318 317 317 317 316 315 314 313 313 313 313 313 313 313 314 314 314 314 314 314 314 314 315 315 315 315 315 314 313 312 312 313 311 312 311 312 311 311 311 310 310
316 316 315 314 314 314 314 314 314 314 314 313 311 310 311 309 308 308 307 307 308 307 307 307 307 306 306 306 306 305 305 306 307 307 307 307 307 308 310 312 312 309 308 309 308 308 308 308 309 308 308 308 308 308 308 308 308 308 308 309 309 310 310 311 312 313 313 313 313 313 313 312 312 311 311 311 311 311 312 310 310 313 309 309 309
315 315 314 313 312 312 312 311 312 311 310 309 308 308 308 307 307 306 306 306 306 305 305 305 305 305 305 304 304 305 304 304 304 305 305 305 305 306 307 307 306 305 304 303 303 302 302 302 302 302 302 302 302 302 302 301 301 302 302 302 302 301 303 304 307 310 312 311 311 311 311 311 311 311 318 311 309 310 310 310 309 309 308 308 308
313 313 313 313 312 311 311 310 309 309 308 308 307 306 305 305 305 306 307 305 304 304 303 303 303 303 303 303 303 303 303 303 303 303 303 303 303 304 304 303 302 302 301 300 300 300 299 299 299 299 299 299 299 299 299 299 298 297 298 297 296 296 295 295 297 305 310 310 309 309 309 308 309 310 310 310 309 309 309 309 310 309 308 308 308
310 310 310 310 309 309 308 308 308 308 307 306 305 305 304 304 303 303 302 302 302 302 301 301 301 302 302 301 302 302 302 301 302 302 302 302 302 302 302 301 300 299 299 298 298 298 298 297 297 297 296 297 297 297 298 298 297 296 295 295 295 295 294 293 295 302 304 306 309 309 309 308 307 308 308 308 307 307 308 308 308 308 308 308 307
307 307 307 306 306 305 305 304 305 303 303 303 303 302 302 301 301 300 300 300 300 300 299 299 300 300 301 301 301 301 301 301 300 300 300 301 301 301 301 299 299 298 297 296 296 296 295 295 296 295 295 295 295 296 296 297 296 295 295 294 294 293 290 291 294 296 295 305 309 308 308 307 307 307 308 307 307 306 306 306 307 308 307 307 307
306 306 306 305 304 303 303 303 302 301 302 301 300 299 299 299 299 299 298 298 298 298 298 298 298 298 299 299 299 299 299 298 298 298 299 299 300 301 300 299 298 297 296 295 295 295 294 294 294 294 294 294 294 294 295 295 295 294 293 293 292 290 290 290 293 294 296 302 308 308 309 308 307 307 306 305 305 305 306 306 307 307 307 306 306
306 305 305 305 304 304 303 301 299 299 298 297 297 296 296 296 296 296 296 295 295 295 296 296 297 297 297 298 299 298 298 297 297 297 297 297 298 299 299 299 299 298 297 296 296 295 294 294 294 294 293 294 294 294 294 294 294 293 292 292 291 291 291 291 292 291 292 297 305 306 306 306 306 306 306 306 305 305 309 310 306 305 305 305 305
Wind_Speed
16 15 14 14 14 14 14 13 13 12 11 11 12 11 10 10 10 10 6 8 8 9 9 9 10 10 10 9 10 9 9 9 8 7 8 8 7 8 6 7 8 8 7 7 6 6 8 8 9 8 6 6 7 6 6 5 4 5 4 5 5 4 5 6 7 10 5 3 3 4 1 2 3 5 7 7 6 7 8 8 8 8 8 8 9
15 14 13 13 15 14 14 13 12 11 12 11 12 11 10 10 9 7 9 9 8 10 10 9 9 10 10 10 10 10 9 10 9 8 9 9 9 7 7 8 8 8 7 8 8 8 8 9 9 9 6 8 7 7 7 6 5 5 5 6 6 6 5 6 7 5 11 1 3 2 3 3 4 3 8 8 8 5 8 8 7 8 9 8 8
15 14 14 14 15 14 14 13 12 13 13 11 12 11 10 10 8 9 10 8 8 9 10 10 10 10 10 10 10 10 10 10 9 9 10 10 10 9 8 8 9 9 9 10 10 8 8 9 11 9 5 7 8 8 6 6 5 6 7 6 6 6 5 7 5 7 9 9 4 4 3 3 6 6 5 7 7 6 7 8 9 8 8 9 9
15 14 14 14 15 14 13 12 13 13 13 12 13 12 11 10 9 10 10 8 9 9 9 10 9 10 10 10 11 11 11 10 10 10 11 10 10 10 9 9 9 10 11 10 9 8 10 9 11 9 7 8 9 8 7 5 6 6 7 6 6 7 6 6 7 7 6 8 4 5 3 4 6 5 4 3 5 6 7 7 5 7 8 8 9
14 14 14 15 14 13 13 12 13 14 14 12 14 13 13 11 10 11 10 10 10 9 9 8 9 10 11 12 12 12 12 11 11 11 10 10 10 10 10 10 10 11 11 10 9 9 9 11 12 9 7 9 9 8 8 8 7 6 7 7 7 7 5 6 7 7 7 10 9 4 4 4 4 3 4 5 5 6 5 7 8 9 8 8 7
14 14 14 14 13 14 14 14 15 15 15 14 15 14 13 12 11 11 11 12 11 10 10 9 10 12 12 12 12 12 11 11 12 12 11 10 10 10 10 10 11 11 11 10 10 9 10 12 11 8 8 10 11 10 8 8 7 7 9 9 8 5 6 6 6 7 7 10 8 9 3 5 4 5 5 6 7 6 7 7 6 6 7 8 9
15 15 15 15 14 16 16 16 16 16 15 15 13 13 13 13 13 12 11 12 12 12 11 11 11 11 12 11 11 11 11 10 11 11 11 10 11 11 11 11 11 10 11 11 10 10 11 10 10 9 10 11 11 11 9 7 7 9 9 9 7 5 6 7 7 7 8 8 8 8 9 5 5 8 5 5 6 7 8 6 8 8 8 9 10
15 15 15 15 15 16 16 15 15 14 13 13 13 13 13 13 13 12 11 13 13 13 12 12 12 11 12 11 11 10 10 10 11 11 11 11 11 11 12 12 12 11 11 10 10 10 11 11 10 10 11 11 11 10 7 7 5 7 8 7 7 6 7 7 6 7 8 8 9 10 7 6 4 5 2 1 4 6 8 8 11 9 9 9 10
15 16 15 15 15 14 13 12 12 13 13 12 13 13 13 13 12 12 12 12 11 12 12 12 12 12 11 11 11 10 10 11 11 11 12 12 12 12 12 12 12 12 11 11 9 10 10 10 11 11 11 13 15 13 11 9 7 8 9 7 7 7 8 7 7 7 8 8 9 7 7 7 7 7 8 7 10 13 4 7 10 10 6 5 8
15 15 15 15 14 13 13 12 12 13 13 14 14 13 12 12 12 13 13 13 12 11 11 12 12 12 12 12 11 10 11 10 14 18 16 12 11 11 10 11 12 11 11 10 10 10 11 10 10 14 15 15 15 15 16 15 15 12 10 7 9 8 9 8 8 8 8 9 10 9 9 10 9 9 11 11 9 7 7 6 8 9 3 7 8
15 15 15 14 14 13 12 13 12 13 14 13 13 13 13 12 12 13 12 12 12 12 11 12 12 12 13 13 12 11 11 11 17 16 18 19 13 11 11 11 10 11 11 11 11 11 10 10 10 12 13 12 14 17 17 17 17 18 19 16 12 11 9 9 10 8 8 10 10 8 10 12 12 10 9 11 8 10 10 7 8 6 7 8 12
15 15 15 14 14 14 13 13 13 13 13 13 13 13 12 13 13 12 12 13 12 11 12 13 12 12 12 12 13 12 12 15 17 17 17 18 17 13 10 10 9 10 10 11 11 10 10 10 9 9 9 12 12 12 14 17 18 18 18 17 17 16 16 13 11 8 9 10 10 11 10 11 13 9 10 9 12 8 8 8 9 9 10 10 11
14 15 15 15 14 14 14 14 14 14 14 14 13 13 13 14 14 13 14 12 10 12 14 13 13 13 13 13 14 13 12 15 17 17 17 18 19 16 11 10 10 10 10 11 11 11 10 10 10 9 9 15 13 11 11 12 14 18 18 17 17 18 19 19 16 14 10 10 11 13 12 12 13 13 11 11 8 10 8 9 10 11 12 12 13
15 15 15 15 15 14 14 14 14 14 14 14 13 13 14 15 14 13 12 11 13 14 13 14 14 13 14 14 13 13 13 15 17 18 17 18 18 16 12 12 11 11 11 11 10 11 12 11 10 10 10 9 10 11 10 11 11 9 10 10 12 16 19 20 18 18 16 13 13 15 15 10 15 14 13 10 10 13 12 13 12 12 12 15 15
15 15 15 15 14 14 14 14 14 14 14 14 13 14 15 14 14 13 12 13 14 14 13 14 14 13 13 13 13 13 13 17 16 18 18 18 18 15 11 11 11 11 11 11 12 12 11 10 10 12 11 10 9 11 10 11 11 11 11 11 11 12 12 11 12 13 14 13 15 18 18 14 15 17 16 13 15 15 14 15 14 14 11 7 7
14 14 14 14 14 14 14 14 14 14 14 14 14 15 14 14 14 13 12 12 12 12 12 12 13 13 13 13 13 14 14 16 17 17 18 18 17 10 10 11 12 12 12 12 11 10 10 10 11 12 12 10 12 15 14 11 11 12 12 12 12 12 12 11 15 16 16 15 15 17 17 19 20 19 18 15 13 12 11 11 10 8 6 9 13
14 14 14 14 14 14 14 15 15 15 14 14 15 14 14 14 13 12 12 13 13 13 13 13 12 12 13 14 14 15 14 15 17 17 18 18 12 9 10 10 11 12 13 12 11 11 10 11 11 10 10 11 13 15 16 15 12 13 13 13 12 12 11 7 15 21 22 23 24 24 26 26 26 27 26 24 18 14 10 10 15 9 9 12 15
14 14 14 14 14 14 14 15 15 15 14 15 15 14 14 13 13 12 13 13 14 14 12 12 12 13 14 14 14 14 14 14 16 17 18 17 15 11 10 10 12 12 12 12 10 10 11 15 14 11 11 12 14 16 16 13 12 13 13 13 14 13 10 8 8 10 19 23 24 25 27 26 28 29 27 24 24 17 12 16 18 9 12 13 14
14 14 14 13 14 14 14 15 15 15 15 15 14 15 15 14 14 12 13 13 13 12 11 12 12 12 13 14 16 17 14 13 17 18 18 17 16 10 10 10 11 11 11 12 10 10 10 11 15 15 13 14 16 15 16 14 12 12 12 13 14 14 11 9 10 10 7 8 11 13 16 20 21 19 18 25 25 20 15 17 16 12 13 12 11
14 13 13 14 14 14 14 15 15 15 15 14 14 14 13 12 12 12 12 11 11 11 11 11 12 12 11 12 13 14 14 12 13 18 17 18 20 13 10 10 11 12 11 11 10 10 10 10 11 15 18 18 17 17 16 16 14 12 9 10 12 15 12 10 10 9 10 9 9 9 14 15 14 13 14 16 16 15 16 16 17 16 16 14 14
9 10 12 12 13 13 13 14 15 14 14 14 14 13 12 12 12 12 12 11 11 10 11 11 11 11 11 11 12 12 12 13 13 17 17 19 21 19 10 12 12 11 11 10 10 10 10 10 9 12 17 18 17 16 14 12 12 11 10 10 13 15 10 7 8 7 7 9 9 9 9 10 10 10 12 12 12 12 13 15 16 16 16 16 15
5 5 7 9 11 12 12 12 13 12 12 12 11 11 11 11 11 12 10 10 12 12 11 10 10 10 10 10 11 12 12 16 12 14 17 19 20 23 13 12 13 11 11 10 10 9 10 9 9 10 11 11 11 11 11 11 12 8 12 16 15 14 10 5 7 8 9 9 10 10 10 11 12 11 11 11 11 12 12 12 13 16 16 17 18
6 8 8 8 9 10 10 12 11 9 10 12 12 12 11 11 11 11 11 11 11 11 11 10 10 10 9 9 8 10 10 10 16 12 15 19 20 21 22 15 16 13 11 11 11 11 8 7 5 2 4 4 4 3 3 6 6 8 13 13 14 15 10 7 7 7 7 8 8 9 11 10 11 12 12 12 12 12 12 12 12 13 15 16 18
5 6 8 10 10 10 10 11 11 10 11 11 11 11 11 11 11 10 11 10 10 10 9 9 9 9 9 8 7 8 8 9 11 16 14 19 19 21 21 21 16 12 12 11 8 6 5 3 3 4 2 0 2 3 4 4 5 8 9 11 10 8 4 4 5 5 6 7 8 9 10 10 9 11 12 13 13 13 15 15 14 14 14 14 16
4 6 6 7 9 10 10 10 10 10 10 10 10 10 10 10 10 9 9 9 9 10 9 9 10 9 9 9 8 8 8 8 8 12 17 17 19 19 20 20 21 16 8 4 2 3 5 5 2 1 2 3 5 4 3 5 7 7 7 7 5 2 3 3 4 4 5 7 8 9 10 9 10 11 11 12 13 13 14 15 14 14 14 15 16
4 5 5 6 7 7 8 9 10 11 10 9 10 10 11 11 10 9 9 10 10 10 9 9 9 9 9 9 8 8 8 6 5 3 5 8 9 13 14 13 13 11 8 3 2 4 2 2 4 3 3 2 0 1 1 1 3 3 4 2 1 2 2 3 3 4 6 6 7 8 9 9 10 10 12 12 13 14 14 15 14 15 12 13 13
3 4 4 4 4 5 8 8 8 8 8 8 8 9 9 9 9 9 9 10 9 9 9 8 8 8 8 8 8 7 5 5 5 4 3 5 5 6 7 6 6 6 6 6 4 2 2 3 3 3 4 4 4 3 3 1 1 2 2 2 2 2 2 2 3 4 6 7 7 8 9 9 10 11 11 11 12 13 11 14 14 15 13 13 14
2 4 5 4 5 6 7 8 9 7 7 6 7 6 7 7 8 9 9 9 9 9 8 8 8 8 8 7 7 5 5 5 5 6 6 6 5 5 5 5 6 6 6 4 4 4 5 5 5 4 4 4 4 2 2 2 1 1 2 1 2 2 3 5 5 5 6 6 7 8 9 9 10 10 10 11 12 13 11 13 13 16 14 13 15
1 2 2 4 5 4 5 5 6 6 6 7 7 5 3 1 1 1 1 1 5 8 9 8 9 9 8 8 8 6 3 5 8 4 5 7 9 9 8 7 6 5 6 10 7 5 5 4 4 4 4 3 3 4 4 4 3 2 2 3 3 2 2 2 3 5 5 5 7 8 9 9 10 10 11 12 12 13 13 14 15 15 16 13 17
0 1 1 2 3 4 5 5 5 7 7 8 8 8 10 9 5 1 0 5 6 4 3 7 8 8 7 3 4 9 10 7 9 11 10 10 9 8 9 10 9 9 9 9 6 6 4 5 5 5 4 4 4 4 4 4 5 6 5 4 3 4 5 5 5 6 6 6 7 8 9 9 10 10 9 10 11 11 13 14 15 13 15 15 15
1 1 3 3 4 5 6 6 6 6 7 7 7 8 6 9 14 12 7 6 7 8 1 4 6 7 9 6 5 11 15 16 14 13 14 13 14 14 13 12 12 12 10 8 6 5 5 6 5 4 4 3 3 3 3 4 4 4 6 6 6 6 5 5 6 6 6 7 8 8 8 8 9 9 9 10 12 13 14 11 12 13 13 14 15
1 2 3 4 5 4 5 6 7 7 6 6 7 7 7 7 8 14 14 13 14 13 11 7 6 9 12 14 11 7 12 16 16 15 14 14 14 15 14 12 9 7 3 7 8 6 5 6 5 4 3 3 2 2 2 3 3 4 5 6 6 5 5 6 6 7 7 6 7 8 8 8 8 9 10 11 12 12 13 14 13 14 13 12 13
1 2 2 4 5 6 6 6 6 7 8 8 7 7 7 7 8 6 10 15 18 17 16 14 12 13 15 15 16 15 11 11 16 16 16 14 14 14 14 12 11 7 10 9 7 6 5 5 4 3 3 2 1 2 2 3 3 4 4 5 6 6 6 7 7 6 6 6 7 8 8 8 8 9 11 11 10 12 13 13 13 13 13 12 11
2 1 1 4 6 6 6 7 7 6 6 6 7 6 6 6 8 9 9 7 9 13 15 15 14 17 16 19 19 18 15 12 13 15 15 14 14 12 13 9 11 10 9 7 7 6 4 4 4 2 1 1 1 2 2 2 3 4 4 5 5 6 6 7 6 7 7 7 7 7 7 7 7 8 9 10 11 12 12 13 13 14 13 11 10
5 4 4 3 2 4 5 6 6 6 6 6 5 6 6 6 6 6 7 9 9 8 7 7 8 11 14 13 15 16 15 14 13 14 14 13 12 13 11 9 8 6 7 5 5 5 4 3 2 2 1 0 1 2 3 3 3 3 4 5 5 5 6 6 6 6 7 7 7 7 7 8 8 8 8 9 11 12 13 13 13 13 12 11 9
6 5 5 5 5 5 4 4 4 6 6 6 6 7 6 7 7 8 8 8 9 9 8 7 6 8 12 12 14 14 15 14 14 13 13 12 10 6 8 7 7 5 5 3 5 4 3 3 2 2 2 2 1 2 2 3 3 4 4 4 5 5 6 6 6 7 7 7 6 7 8 7 7 7 8 8 9 10 11 12 12 12 11 9 7
7 6 5 5 5 5 6 5 5 6 6 7 8 8 8 7 7 8 8 9 9 8 8 7 7 7 8 7 10 13 12 12 12 11 10 8 8 5 7 6 6 5 5 4 4 3 3 2 1 1 1 1 1 1 2 3 3 4 4 4 4 5 5 5 6 7 7 7 7 7 7 7 7 7 6 8 9 9 10 10 10 11 10 12 10
6 6 5 6 5 7 7 7 8 9 8 7 7 8 9 9 8 8 9 11 11 10 9 7 6 7 7 4 3 5 8 10 13 10 6 6 5 5 5 5 5 6 5 4 3 3 2 1 0 1 0 0 1 2 3 3 3 4 4 4 5 4 6 6 6 6 6 6 6 6 7 7 6 6 6 7 8 8 9 9 9 10 11 13 11
7 10 12 13 10 6 5 7 7 7 7 7 7 8 10 10 10 10 9 8 9 9 8 7 7 5 5 3 4 5 8 5 5 5 4 2 1 3 5 5 4 4 3 3 1 1 0 0 1 2 1 1 1 2 3 3 3 4 4 4 5 5 5 4 5 5 5 5 5 5 5 6 5 4 5 6 7 7 7 8 9 9 10 10 10
7 7 8 10 8 8 8 6 6 8 8 8 8 7 7 8 8 8 9 10 10 9 9 8 7 6 5 3 2 2 6 5 4 4 4 3 4 4 5 5 4 4 4 4 3 2 2 3 2 2 1 0 1 2 3 3 3 4 4 4 4 5 5 4 5 5 5 5 5 5 4 5 5 3 3 4 6 6 6 7 7 7 7 8 9
7 7 7 8 9 9 8 9 7 7 7 7 7 7 8 8 7 9 9 10 9 9 9 8 7 6 7 8 9 10 8 7 6 6 6 6 6 6 6 6 5 4 4 4 4 4 4 2 2 1 1 1 1 3 3 3 4 4 4 4 4 4 4 4 4 4 5 5 5 4 4 4 4 4 5 5 5 5 5 5 6 6 6 6 6
7 8 8 7 8 8 9 9 8 8 8 9 9 8 9 9 8 8 10 9 9 9 8 8 7 8 12 19 16 16 11 7 7 7 7 7 7 6 5 5 5 5 4 4 4 4 3 2 3 3 3 5 5 4 4 4 4 5 4 4 5 5 5 5 5 5 5 5 5 5 4 4 3 3 2 3 4 5 5 5 5 5 5 6 5
9 8 7 8 8 8 9 8 8 9 9 9 8 9 10 9 9 7 9 9 8 8 8 8 7 7 10 14 14 14 10 9 8 8 7 7 6 6 6 6 5 5 5 5 5 5 5 5 5 5 5 6 5 4 4 4 4 4 4 4 4 5 5 5 5 5 5 5 6 5 5 4 3 3 3 3 3 3 3 4 4 5 4 4 4
10 9 9 9 9 10 9 9 9 8 9 13 12 9 8 7 7 8 9 9 9 8 8 8 7 7 8 9 11 11 9 8 7 6 6 6 7 6 6 6 7 8 8 8 8 7 7 7 7 6 7 7 7 6 6 5 4 4 5 5 5 5 5 5 5 5 5 6 6 6 5 4 3 3 3 3 3 3 2 2 3 3 3 2 3
7 9 10 9 9 10 9 7 8 11 13 11 10 9 8 8 8 8 8 9 9 9 8 8 7 8 8 8 9 9 8 7 6 6 7 6 6 6 7 7 9 9 9 9 9 9 8 8 8 8 8 7 7 7 7 6 6 6 5 6 6 6 6 6 6 6 5 4 5 5 4 4 3 3 3 2 2 1 2 1 1 1 3 3 3
8 8 8 9 8 7 8 8 7 8 10 10 10 10 9 10 9 10 10 11 10 9 7 7 8 8 8 8 8 8 7 6 7 6 7 7 7 6 6 8 8 8 8 8 8 9 8 8 8 7 7 7 7 7 7 7 7 7 7 6 6 5 6 7 7 7 6 5 5 5 5 4 3 2 2 1 1 2 1 1 2 1 1 2 2
9 9 9 9 9 9 9 9 9 8 9 10 10 10 10 10 9 11 11 12 10 9 8 8 8 9 9 8 8 8 7 8 7 7 7 7 7 7 7 8 7 7 8 8 8 9 9 8 7 7 7 6 6 7 7 8 7 8 8 7 8 8 8 8 7 6 6 6 4 2 2 3 3 3 3 2 2 2 2 1 0 0 0 0 2
10 9 9 9 9 9 8 9 10 11 10 10 10 9 9 10 9 10 9 9 10 9 8 8 9 8 9 8 8 8 8 8 8 8 7 7 7 8 8 9 8 7 7 8 9 8 8 8 8 7 8 8 8 8 8 8 8 8 8 8 8 9 11 11 7 6 5 5 4 3 1 1 2 2 3 2 1 1 0 0 1 1 0 0 1
11 11 11 10 10 10 9 9 9 8 9 9 10 11 10 10 10 9 9 9 9 9 8 8 9 8 8 8 8 8 8 8 8 8 8 8 8 8 8 8 8 8 8 8 8 8 8 7 8 7 8 7 7 8 8 8 9 9 9 9 12 18 17 14 7 7 8 5 4 3 2 2 3 3 3 3 3 2 1 0 1 1 1 1 1
13 13 12 11 12 11 11 9 9 9 9 9 10 9 9 9 9 9 9 9 9 9 9 9 9 8 8 8 8 8 8 8 8 8 8 8 8 8 8 8 8 8 8 8 8 8 7 7 8 8 8 8 8 8 8 8 8 9 9 11 16 17 17 17 14 13 10 5 5 3 2 1 2 3 3 3 3 3 3 3 3 2 0 1 1
12 14 13 12 11 11 11 11 11 10 10 10 10 10 10 10 9 9 10 10 9 9 9 8 9 8 8 8 8 8 8 8 8 8 8 8 8 8 8 8 9 8 8 8 8 8 8 8 8 8 8 8 7 9 8 9 8 9 12 17 17 18 19 17 13 14 14 7 4 4 3 4 3 4 4 5 4 4 3 3 2 2 2 2 0
Wind_Direction
190 194 189 193 190 191 194 195 199 197 196 195 198 201 200 200 201 203 186 201 195 197 200 200 199 201 201 204 207 209 212 212 209 207 207 212 211 211 208 205 212 219 214 218 216 214 219 226 231 229 216 223 233 238 239 228 203 210 207 201 221 205 183 200 230 266 279 221 224 237 264 202 249 212 230 232 231 225 223 227 224 222 222 224 228
193 192 190 191 192 192 194 195 196 195 197 198 202 202 202 203 202 189 197 202 194 202 203 202 201 200 203 206 207 210 212 214 210 205 210 214 217 210 210 207 217 222 211 222 217 217 217 226 237 235 218 224 231 232 231 232 223 223 223 208 218 218 200 200 235 243 269 285 277 267 261 186 238 197 212 226 235 217 222 227 222 220 223 223 226
191 188 189 190 195 194 192 194 193 195 198 200 204 203 204 205 198 200 206 201 200 204 205 203 202 201 206 207 207 209 210 213 212 209 212 213 216 217 213 210 214 219 218 223 220 215 219 226 235 232 222 229 236 237 226 226 219 222 234 219 226 220 201 206 216 249 261 268 205 251 236 219 209 235 222 229 233 213 223 229 225 224 226 223 225
189 189 191 193 194 192 193 192 192 195 200 202 204 205 204 205 200 206 208 204 203 207 206 205 202 202 207 209 209 210 209 211 213 213 214 213 216 218 216 215 217 219 222 225 221 212 220 227 236 229 221 228 237 237 235 224 218 223 231 230 224 232 211 198 214 229 248 265 255 214 231 218 248 245 236 233 234 232 224 236 233 233 231 228 229
187 189 190 192 191 191 192 191 194 198 202 202 205 204 205 204 202 206 206 208 209 205 207 203 204 205 209 211 211 211 210 208 211 215 216 216 217 218 218 219 221 222 223 225 220 217 221 226 235 227 218 228 240 236 231 227 227 222 233 232 223 226 217 210 221 217 239 250 265 230 225 236 241 238 214 223 243 240 242 234 228 229 232 231 231
188 188 190 190 190 191 192 192 196 199 201 203 205 204 204 204 203 206 205 209 210 209 206 203 205 209 213 214 213 213 210 210 212 214 214 215 218 221 221 221 223 224 226 225 222 219 223 229 235 228 223 225 237 236 229 229 228 231 235 238 231 217 220 227 224 230 231 249 254 273 228 233 262 244 214 203 223 244 248 245 246 236 231 238 233
187 188 189 191 191 194 194 196 197 199 200 203 203 204 205 205 204 207 205 209 210 211 209 207 210 211 215 214 216 213 211 213 215 216 216 214 216 219 223 226 227 226 228 226 224 223 226 230 232 227 228 230 237 238 231 225 224 234 236 241 242 223 229 231 227 232 237 250 259 251 266 248 216 260 247 210 222 224 238 247 251 229 224 227 240
187 189 190 193 196 197 197 197 198 199 200 201 203 205 206 206 207 207 204 209 212 212 212 211 214 214 216 214 217 213 212 215 217 218 216 215 215 219 220 224 228 231 232 229 225 226 228 231 232 228 228 233 235 243 233 231 214 234 238 236 237 225 233 238 234 235 242 246 247 261 250 263 256 248 293 190 248 262 229 224 247 243 226 228 230
187 190 191 195 198 196 195 197 199 199 199 200 204 206 207 207 207 207 208 211 213 214 214 214 216 219 221 218 218 213 214 217 217 216 216 217 216 220 220 222 225 230 233 233 228 227 230 232 233 233 231 234 234 237 234 225 216 229 237 220 230 225 232 233 234 235 247 249 261 255 262 261 255 263 258 232 228 243 221 196 243 253 245 251 251
187 189 193 196 196 194 195 195 196 196 197 201 204 205 207 207 208 210 211 212 213 213 215 216 218 219 221 222 221 218 219 221 221 216 213 213 215 220 221 223 224 228 232 234 234 230 231 232 237 236 233 233 234 234 235 231 225 226 235 212 222 223 228 233 232 232 239 249 250 253 257 253 250 241 248 247 243 256 250 219 235 253 255 254 268
187 189 194 194 194 193 193 197 195 197 200 201 202 203 206 206 210 212 212 212 213 213 214 218 219 220 221 222 221 220 223 225 222 215 214 215 213 217 219 224 223 226 229 231 235 234 234 233 238 240 236 236 236 235 234 233 230 231 235 233 222 215 226 229 234 228 232 240 249 249 247 257 253 244 244 255 244 235 240 230 236 246 233 242 257
186 190 194 192 192 192 194 193 196 199 198 202 202 203 204 206 210 211 212 212 213 212 217 218 219 221 223 224 224 223 225 226 221 216 214 214 214 218 220 223 222 224 227 229 234 236 236 235 235 235 236 234 235 238 237 237 237 235 236 238 238 233 226 224 232 233 227 238 246 243 246 249 257 247 247 244 249 242 233 228 227 227 232 232 240
184 190 193 193 192 192 193 193 196 197 199 200 202 200 203 206 209 210 212 211 209 214 218 216 219 220 223 225 227 227 229 224 220 217 214 213 214 217 226 223 223 224 223 226 230 232 234 236 238 235 238 235 237 240 241 243 235 235 238 241 242 239 241 240 236 237 235 236 240 250 236 247 254 251 236 241 235 243 230 227 228 227 227 232 239
186 192 193 193 192 192 192 194 196 199 198 199 199 201 203 208 208 208 209 207 212 217 216 218 219 220 222 224 229 231 231 226 217 216 214 213 212 209 225 227 230 229 226 224 226 229 230 232 235 240 237 233 232 234 239 243 249 240 232 230 236 241 239 237 238 244 246 245 247 251 248 227 246 251 244 227 226 235 233 236 231 234 231 232 236
189 193 193 193 192 192 192 194 197 198 198 197 198 202 204 208 207 207 206 209 212 215 215 217 220 221 222 224 229 232 233 226 217 214 214 212 211 203 221 227 234 236 233 229 229 229 229 228 232 238 239 233 231 229 230 236 240 245 245 240 233 238 239 233 224 230 235 235 243 249 255 245 244 247 247 234 229 236 233 238 237 237 243 262 272
193 192 193 193 193 193 192 194 198 198 197 197 199 203 205 205 207 205 208 212 215 217 219 219 220 219 221 223 227 234 235 224 216 213 210 212 204 202 216 225 231 237 239 236 234 233 230 228 229 236 240 237 234 223 224 231 238 245 246 247 248 244 240 226 224 225 228 231 235 242 247 247 243 246 244 241 241 243 250 252 256 251 250 249 252
194 193 195 193 193 193 193 194 198 198 197 198 200 202 203 206 208 204 208 212 213 214 218 217 219 219 220 220 224 232 235 226 216 212 210 207 192 208 213 223 231 236 240 240 238 235 232 229 228 236 239 239 235 223 222 219 238 242 246 251 250 250 250 231 220 223 227 230 234 238 244 248 250 250 250 247 245 245 246 252 248 226 229 244 251
195 193 196 193 193 193 194 195 198 199 197 199 200 203 205 206 206 202 205 208 214 215 214 219 218 218 219 221 221 229 233 227 214 212 207 196 190 202 210 217 229 233 240 242 240 239 237 233 230 232 236 240 234 224 220 212 232 239 246 253 257 255 253 239 245 230 226 231 233 238 242 246 249 252 253 253 250 243 237 249 253 229 231 233 247
195 195 196 194 195 195 195 197 199 199 199 200 200 202 203 204 206 202 205 209 215 213 213 217 218 220 220 223 223 226 233 229 215 212 203 192 193 207 207 216 228 232 234 242 239 239 242 239 232 231 234 238 235 228 222 211 229 235 241 249 260 264 257 247 248 250 240 235 247 250 257 255 255 255 256 253 251 247 237 244 257 252 243 237 237
200 196 193 195 197 197 196 197 199 199 200 202 202 204 204 205 205 203 206 208 212 213 213 215 218 220 217 221 225 226 230 231 219 211 199 191 191 198 207 213 224 230 230 233 242 237 236 241 238 231 232 237 239 235 229 215 226 241 244 251 258 266 263 252 249 249 259 256 253 234 243 250 253 254 253 257 253 239 236 235 241 244 245 243 231
201 200 198 197 198 198 198 197 198 201 200 201 201 203 201 202 203 203 205 206 211 213 213 214 218 220 217 218 224 225 225 228 225 207 200 191 194 195 208 212 219 224 228 229 231 238 238 234 239 234 230 232 235 241 246 241 234 244 247 250 246 257 302 295 283 282 273 269 265 264 263 265 259 252 253 253 251 246 237 230 234 236 237 243 240
180 185 190 198 200 200 199 200 200 201 201 199 199 204 205 203 203 204 204 205 208 212 212 213 216 219 218 217 220 225 223 220 224 209 198 194 195 197 205 213 210 216 225 232 230 234 236 234 237 239 243 246 244 241 237 237 235 227 244 249 275 302 298 269 296 286 278 278 275 272 268 265 270 267 264 262 259 255 250 241 231 231 231 232 234
185 181 184 190 197 199 200 198 198 199 200 198 198 202 200 201 203 201 203 206 208 211 213 211 214 218 220 220 219 221 223 222 216 211 198 197 199 199 207 212 207 211 220 229 226 231 231 234 234 110 89 67 79 104 171 211 208 225 243 255 259 267 285 278 275 279 274 274 274 271 270 266 270 272 272 274 271 268 266 256 249 239 235 236 233
189 190 191 190 188 193 195 198 199 200 198 196 199 200 199 201 201 201 201 202 204 209 211 210 211 215 218 222 219 220 218 220 213 209 201 202 202 201 208 217 212 211 215 229 230 227 202 166 105 94 98 209 238 229 217 201 229 239 238 245 254 263 258 271 266 263 271 272 270 271 272 272 269 267 269 273 277 279 276 273 268 258 252 247 239
193 194 198 198 194 191 187 189 194 197 196 193 197 200 201 195 201 203 199 203 206 208 209 205 209 211 214 217 219 217 217 215 216 209 207 203 205 205 210 212 220 220 227 225 138 100 103 128 141 147 236 247 253 258 244 233 237 249 257 261 257 239 228 239 259 262 267 269 270 273 276 276 276 279 284 284 284 285 281 279 273 268 261 256 251
196 208 202 197 200 192 188 192 190 191 189 192 198 198 196 194 199 198 196 203 204 205 206 202 208 208 210 215 215 217 214 210 195 166 197 198 208 216 218 222 229 226 231 265 64 73 81 122 142 151 145 130 97 85 56 43 329 304 300 296 208 217 225 244 272 268 273 280 281 283 283 287 284 286 290 291 289 282 283 282 285 280 274 270 267
193 201 207 207 200 193 191 189 188 185 184 186 195 198 198 199 200 198 197 201 201 204 203 201 205 203 209 209 214 209 186 175 165 158 158 166 183 187 184 197 196 187 205 225 226 209 110 104 96 106 97 99 108 122 106 45 52 53 27 2 340 312 286 263 256 267 271 273 277 276 281 282 287 288 284 285 280 279 278 285 288 284 283 276 270
200 201 199 191 190 193 197 189 175 178 176 178 185 193 197 200 201 200 198 195 193 201 200 201 199 198 205 202 200 171 175 181 179 177 177 176 163 161 176 170 175 181 169 151 137 121 114 100 85 81 94 84 78 86 71 47 34 336 325 274 264 256 262 260 262 256 257 257 269 276 279 282 284 284 285 282 281 282 285 282 281 282 280 282 276
255 235 189 171 185 185 183 178 170 145 93 67 56 43 19 10 131 130 72 98 202 201 203 202 199 199 196 193 180 188 170 196 216 189 177 175 169 164 176 177 158 149 145 138 118 105 107 103 100 84 69 76 59 38 19 5 358 338 297 314 307 290 268 245 262 271 274 278 273 278 283 286 283 282 282 280 278 280 282 280 275 275 279 269 268
161 203 187 185 170 156 154 150 128 127 126 116 107 72 60 68 40 19 59 341 352 298 210 200 196 190 186 182 178 185 199 197 108 103 101 99 92 96 104 115 128 129 136 146 131 119 114 100 79 73 56 43 42 25 7 1 350 343 344 331 324 318 325 329 316 293 283 277 284 287 289 291 290 288 280 273 278 274 274 272 279 276 275 275 272
328 167 157 174 182 166 152 134 128 126 132 134 121 119 109 55 48 45 41 35 33 26 321 247 202 183 168 150 42 67 97 102 104 103 103 104 106 101 96 98 108 127 147 130 70 86 100 90 87 82 79 72 55 26 3 356 349 340 334 330 333 333 314 290 280 280 286 290 288 288 290 293 288 286 285 284 287 288 288 278 270 272 267 270 270
205 209 169 159 153 150 137 134 135 134 133 136 135 137 125 108 57 38 44 53 51 49 37 52 113 137 141 135 125 68 93 110 119 117 110 106 105 105 101 96 94 91 93 98 92 77 80 94 81 72 83 67 40 18 9 349 334 331 323 323 317 308 301 296 296 297 294 292 298 299 297 290 292 292 293 292 293 295 296 298 292 284 275 263 260
158 161 146 131 130 129 129 137 143 142 145 146 149 148 139 135 118 94 47 60 68 60 49 46 64 85 86 79 91 108 117 122 117 113 110 109 104 97 90 72 62 67 82 69 100 94 82 90 92 97 83 53 19 340 333 326 323 303 292 290 302 305 297 295 294 294 295 300 297 292 293 298 302 304 298 297 301 305 306 303 301 296 288 281 276
23 345 135 144 140 140 143 148 148 152 152 151 153 148 140 133 134 128 115 105 69 58 55 52 69 85 89 106 110 113 117 114 108 112 113 111 111 101 91 86 75 53 82 107 98 110 108 101 102 89 75 14 346 321 300 290 273 274 281 281 277 283 291 299 308 313 320 313 303 296 302 309 308 306 308 312 315 313 310 311 312 309 304 295 287
21 50 97 94 89 132 145 145 140 137 136 135 127 120 114 114 116 115 125 119 109 105 107 70 48 88 109 101 106 111 114 117 117 119 119 121 115 130 125 94 81 63 57 70 94 109 121 118 129 135 155 185 229 260 256 258 262 273 278 280 286 292 300 310 313 315 310 304 302 310 316 312 308 307 312 318 323 322 321 323 325 319 308 306 301
43 37 33 69 83 85 83 92 120 129 129 113 105 102 108 111 107 112 109 106 109 112 97 72 68 38 67 87 103 111 116 121 127 127 133 135 148 127 84 90 89 92 99 118 119 124 125 146 161 201 197 209 222 243 256 276 281 278 277 285 294 303 308 316 321 316 305 296 303 313 314 313 312 315 316 322 323 320 323 327 331 336 334 336 339
55 43 42 54 69 81 83 82 78 97 102 109 109 105 101 99 107 108 98 92 83 72 82 91 85 81 72 70 78 76 82 97 100 97 86 62 9 48 112 113 121 120 127 155 162 154 143 164 186 178 182 189 250 301 304 293 278 276 274 282 292 301 308 318 315 305 307 314 323 326 316 312 317 321 327 333 333 332 333 335 334 339 345 352 357
73 88 86 72 71 83 89 86 95 94 98 102 107 111 110 107 103 96 104 107 107 103 103 103 104 113 114 101 97 111 105 98 92 74 60 41 32 78 104 124 125 137 154 167 164 152 158 215 227 128 147 43 353 326 297 281 282 292 312 318 312 304 306 306 301 302 308 316 319 320 313 314 322 328 342 347 337 337 340 343 352 357 0 6 12
67 63 81 93 90 74 72 103 100 96 91 95 102 110 114 115 111 108 99 93 89 86 73 56 50 45 40 54 96 134 108 91 101 118 102 131 157 125 111 110 115 108 112 101 109 117 175 287 346 76 80 40 335 295 292 299 310 324 325 317 316 317 320 314 313 316 323 319 315 309 304 305 314 336 344 344 345 347 344 353 12 15 13 16 22
74 73 62 69 82 87 92 78 83 92 94 97 97 92 88 87 95 99 99 90 82 74 73 67 53 24 0 9 60 105 100 97 84 99 105 105 97 82 87 84 77 71 61 47 44 19 4 350 18 61 66 68 301 313 319 331 335 328 317 315 312 313 313 312 312 318 320 314 305 302 305 306 316 332 357 3 355 348 353 4 7 17 28 34 32
84 77 70 66 80 87 79 79 76 79 90 86 86 87 81 80 80 89 88 87 89 85 79 72 63 45 29 52 67 76 80 75 67 59 57 62 61 55 46 43 48 52 55 49 33 17 12 2 32 86 78 69 4 2 353 352 340 331 324 318 310 306 311 316 319 315 314 309 302 304 304 304 315 354 13 358 355 354 3 11 17 18 26 31 37
82 78 75 71 69 78 83 75 72 73 78 85 81 80 86 80 80 81 83 82 84 82 82 72 62 58 41 46 52 64 70 57 60 59 50 45 45 43 37 33 28 33 41 45 37 33 18 31 47 30 26 16 15 6 360 355 348 337 331 324 324 319 329 331 327 317 312 308 305 305 304 308 318 340 5 19 20 6 7 19 28 28 28 35 42
85 82 80 86 82 78 80 82 80 78 76 76 77 81 81 80 76 64 72 70 71 69 69 65 57 50 49 38 47 55 61 52 52 49 46 39 38 33 28 20 22 24 22 19 24 25 34 39 38 34 32 26 20 10 0 344 336 327 321 323 332 340 338 332 327 322 319 315 310 310 310 315 328 346 1 23 27 31 23 20 23 30 25 33 41
95 92 89 85 85 83 78 82 76 72 79 88 84 73 68 66 64 66 68 66 64 60 63 61 57 54 52 39 43 50 49 46 47 43 44 41 36 28 19 17 29 34 30 30 24 25 31 35 35 32 32 27 19 15 14 4 351 350 344 339 339 344 337 331 322 317 318 312 309 311 315 319 333 352 4 8 18 55 27 41 56 61 56 47 49
73 93 95 90 82 84 79 62 81 90 90 82 73 67 61 60 68 67 68 71 68 64 60 60 56 57 51 47 48 52 46 41 35 30 28 29 28 17 14 26 39 35 32 30 25 24 28 27 29 27 24 19 14 13 10 5 6 6 5 356 352 343 334 323 311 303 296 291 298 306 312 319 332 347 352 356 351 13 53 17 350 77 69 38 65
54 59 67 79 78 66 71 71 69 80 89 86 86 78 72 69 68 70 72 75 74 69 58 54 57 58 57 54 50 51 42 35 34 32 30 28 28 17 11 36 43 42 37 30 27 31 29 28 27 26 20 14 8 7 7 7 5 6 6 11 359 336 319 313 309 304 298 292 293 295 304 315 326 339 8 5 332 333 342 4 14 355 101 117 96
55 56 58 59 62 69 73 73 75 72 75 79 81 80 77 75 73 74 72 72 70 65 58 50 51 53 52 49 46 44 41 37 32 31 29 24 23 18 28 34 34 38 37 33 31 32 29 28 25 24 20 11 7 9 7 7 5 2 4 360 356 346 339 331 312 303 302 298 284 282 313 313 326 334 353 8 10 2 0 349 8 19 326 87 116
54 53 54 57 56 55 56 65 76 74 73 72 71 69 69 72 71 70 70 67 64 63 61 54 53 52 54 50 48 46 44 41 36 31 26 26 25 28 34 35 35 36 37 38 34 32 31 25 24 23 23 17 15 10 8 3 5 0 359 354 352 341 327 320 306 311 316 310 308 323 297 308 311 338 355 14 356 334 82 344 336 16 33 16 53
61 59 53 53 54 49 47 52 56 62 74 80 79 76 71 69 66 66 67 68 69 66 63 61 59 57 58 56 52 50 48 47 43 36 30 21 26 33 37 39 39 40 44 42 37 33 29 25 24 25 23 20 18 14 11 9 5 4 357 352 340 335 336 335 326 334 322 312 331 336 340 354 13 6 8 6 353 359 344 284 189 166 125 83 88
62 59 56 52 52 53 50 44 45 55 63 69 74 74 69 69 68 67 66 66 65 64 62 62 62 59 59 58 56 53 51 47 44 40 34 31 28 27 32 38 41 42 43 41 37 33 30 27 28 27 24 22 19 17 12 12 8 1 358 346 341 343 347 347 346 352 353 339 335 339 320 359 19 23 20 27 16 21 19 353 340 334 136 147 161
71 77 72 61 54 53 54 53 49 45 44 49 56 59 64 63 62 61 63 63 63 62 61 62 64 61 58 57 57 55 53 51 47 42 41 37 34 29 30 32 34 33 33 35 32 32 29 26 21 20 18 13 9 14 13 9 6 0 354 354 357 0 0 359 350 337 338 340 331 358 23 24 38 26 16 8 14 22 13 8 6 10 6 5 7